{"data":{"norad_id":66699,"intl_designator":"2025-276AK","name":"IRIDE FM5","alt_names":[],"object_type":"PAYLOAD","status":"ACTIVE","operator":null,"country":"IT","launch_date":"2025-11-28","launch_site_code":"AFWTR","launch_vehicle":null,"mission":null,"orbit_class":"UNKNOWN","rcs_meters":null,"size_class":null,"mass_kg":null,"dimensions":null,"purposes":[],"wikipedia_slug":null,"has_3d_model":false,"image_url":null,"decayed_at":null,"tle_current":{"epoch":"2026-05-25T03:36:25.489728Z","epoch_age_seconds":55905,"freshness":"FRESH","line1":"1 66699U 25276AK  26145.15029502  .00007612  00000+0  35857-3 0  9996","line2":"2 66699  97.4203 219.0934 0005445  95.3990 264.7866 15.19785715 26921","mean_motion":15.19785715,"eccentricity":0.0005445,"inclination_deg":97.4203,"raan_deg":219.0934,"arg_perigee_deg":95.399,"mean_anomaly_deg":264.7866,"bstar":0.00035857,"rev_number":2692,"period_min":94.750199701673,"perigee_km":502.73899984367,"apogee_km":510.23635611799,"semimajor_km":6884.6246779808,"source":"CELESTRAK","updated_at":"2026-05-25T13:38:06.415720Z"}}}